STARLINK-34447, 64710

Orbit data source: Space-Track

STARLINK-34447, 64710 is a payload satellite owned by SpaceX/Seattle (US) in LEO that was launched on Sat, 28 Jun 2025 UTC via an FALCON 9 launch vehicle from the Air Force Western Test Range (AFWTR). Payload-class satellites include a variety of spacecraft equipped with specific instruments for various scientific and technological missions. These include communications satellites like Starlink; space stations such as the ISS; scientific satellites like the Hubble; Earth observation satellites from companies like Planet Labs, Umbra, and HawkEye 360; GPS; miniature CubeSats for education and research; and military/defense satellites.

Loading next visibility...
Identifier
64710, 2025-142Q
Orbit
LEO
Country
Flag of USUS
Related business
Manufacturer
SpaceX/Seattle
Mission
Operational Commercial Communications
Bus & Motor
STARLINK V2MO, Unknown motor
Mass
575 kg wet, ~530 kg dry
Launch date (UTC)
2025-06-28 (1 year ago)
Launch vehicle
FALCON 9
Launch site
Air Force Western Test Range (AFWTR)
Object type
Payload
Rocket body
Debris
Shape & HBR
Box + 2 Pan, 17.7 m
Radar Cross Section
36.964 m², Large (>1 m²)

Expand to show TLE details & history
Last TLE update: 8 hours ago

TLE from 8 hours ago
0 STARLINK-34447
1 64710U 25142Q   26207.57509269  .00005079  00000-0  43304-3 0  9990
2 64710  70.0028 324.2719 0003104 270.8490  89.2313 14.98341049 60457
Epoch: 2026-07-26T13:48Z
TLE epoch observation values (Epoch: 2026-07-26T13:48:08.008Z)
Latitude
-0.00006°
Longitude
172.96746°
Altitude
574.418 km
Speed
7.574 km/s
True Right ascension
21h 37m 05s
True Declination
0° 00' 00"
Sunlit
Object was in full shadow at epoch
Visualization orbit readout
Latitude
Unknown
Longitude
Unknown
Altitude
Unknown
Speed
Unknown
Apparent Right ascension
Unknown
Apparent Declination
Unknown
Sunlit
N/A
Visualization observer readout
Local Sidereal Time
11:05:02
Azimuth
Unknown
Elevation
Unknown
Doppler factor
Unknown
Orbital elements
Apogee altitude
572.126 km
Perigee altitude
567.813 km
Semi-major axis
6,948.107 km
Eccentricity
0.00031
Inclination
70.0028°
RAAN
324.2719°
Arg. of periapsis
270.849°
True anomaly
89.26687°
Mean anomaly
89.2313°
Eccentric anomaly
89.24908°
Mean motion
3.74752 °/min
Orbital period
96.06 mins
BSTAR
0.00043304
Loading maneuver chart data...
Computing Atmospheric mass density...
Loading historical data...
Loading historical data...
Loading historical data...
Loading historical data...
Loading historical data...
Loading historical data...
Loading historical data...

Documentation

Showing up to 5 results
|